User: anonymous   Login
Location: Brno
(49.2000°N, 16.6330°E)
Time: 18:27:07
(UTC+02:00)
Language:

BREEZE M DEB (TANK) - Orbit

View from above orbital plane
View from above orbital plane
View from above satellite
View from above satellite

Ground track
Ground track

The orbit data is extracted from the following two-line orbital elements,

1 28359U 04022B   16151.08865421  .00001361  00000-0  15884-3 0  9993
2 28359  49.5417  69.1719 4680327 262.4759  43.9969  6.18268211261551
Epoch (UTC): 30 May 2016 02:07:39
Eccentricity: 0.4680327
inclination: 49.5417°
perigee height: 292 km
apogee height: 12030 km
right ascension of ascending node: 69.1719°
argument of perigee: 262.4759°
revolutions per day: 6.18268211
mean anomaly at epoch: 43.9969°
orbit number at epoch: 26155

The dashed part of the orbit path shows where the satellite is in the earth's shadow,  

DLR